www.pogodaiklimat.ru

Погода и климат >> Архив погоды >> Индия >> Раджастхан >> Кота


ПОГОДА в Коте

  • Прогноз погоды в Коте
  • Монитор погоды в Коте

АРХИВ ПОГОДЫ в Коте

Время (UTC), дата Ветер
(напр.,м/с)
 
Видим.   Явления Облачность Т
(С)
Тd
(С)
f
(%)
Тe
(С)
Тes
(С)
Комфортность P
(гПа)
Po
(гПа)
Тmin
(С)
Tmax
(С)
R
(мм)
R24
(мм)
S
(см)
06 17.02 СВ 1 4000 м ясно +21.4 +5.3 35 +22 +39 комфорт 1017.2 985.4
09 17.02 С 2 4000 м ясно +23.4 +4.5 29 +23 +33 комфорт 1013.5 982.0
12 17.02 СВ 1 4000 м ясно +24.2 +3.3 26 +24 +24 комфорт 1011.7 980.3 +25.3
15 17.02 Ю 2 4000 м 4/0
[Ac trans Ci fib]
+20.0 +7.1 43 +21 +21 комфорт 1012.0 980.2
18 17.02 штиль 0 4000 м 3/0
[Ci fib]
+18.0 +8.3 53 +18 +18 1012.9 980.8
00 18.02 штиль 0 4000 м 8/3 600 м
[Sc Ac trans Ci fib]
+15.6 +10.7 73 +15 +15 1010.5 978.3
03 18.02 штиль 0 2000 м мгла 6/4 600 м
[Sc Ac trans]
+17.0 +11.1 68 +17 +19 1011.9 979.8 +15.2 +25.3 1
06 18.02 штиль 0 2000 м мгла 9/6 600 м
[Sc Ac trans]
+25.6 +7.0 31 +26 +30 жарко 1012.2 981.0
09 18.02 ЮЗ 1 4000 м 9/6 600 м
[Sc Ac trans]
+26.8 +6.2 27 +26 +29 жарко 1008.3 977.3
12 18.02 З 2 4000 м 3/3 600 м
[Sc]
+27.0 +4.0 23 +26 +26 жарко 1006.6 975.7 +29.5
15 18.02 ЮЗ 3 4000 м ясно +22.4 +5.8 34 +23 +23 комфорт 1008.1 976.7
18 18.02 ЮЗ 2 4000 м ясно +21.2 +5.6 36 +22 +22 комфорт 1008.9 977.3
21 18.02 штиль 0 4000 м ясно +20.0 +6.0 40 +21 +21 комфорт 1008.5 976.8
00 19.02 штиль 0 4000 м 3/0
[Ci fib]
+17.0 +7.0 52 +17 +17 1009.2 977.2
03 19.02 штиль 0 4000 м ясно +18.4 +9.3 55 +19 +23 1013.0 981.0 +14.7 +29.5
06 19.02 СВ 1 4000 м ясно +26.4 +7.2 29 +26 +42 жарко 1013.4 982.2
09 19.02 СВ 1 4000 м 6/0
[Ac trans Ci fib]
+27.4 +12.3 39 +29 +38 жарко 1011.0 980.0
12 19.02 СВ 1 4000 м 5/0
[Ac trans Ci fib]
+26.8 +13.7 44 +29 +29 жарко 1011.2 980.1 +28.3
15 19.02 ЮВ 1 4000 м ясно +23.0 +15.0 61 +27 +27 душно 1013.4 981.9
18 19.02 штиль 0 4000 м 9/6
[Sc Ac trans]
+21.0 +16.0 73 +24 +24 комфорт 1014.8 983.0
21 19.02 штиль 0 4000 м 8/5
[Sc Ac trans]
+20.6 +15.9 74 +23 +23 комфорт 1014.4 982.6
00 20.02 штиль 0 4000 м 8/5 600 м
[Sc Ac trans]
+19.8 +15.8 78 +22 +22 комфорт 1014.7 982.8
03 20.02 штиль 0 4000 м мгла 8/0
[Ac trans Ci fib]
+19.8 +13.9 69 +21 +25 комфорт 1016.9 984.9 +17.9 +28.3
06 20.02 В 2 4000 м 6/0
[Ci fib]
+26.6 +14.7 48 +29 +42 жарко 1016.6 985.3
12 20.02 СВ 1 4000 м 6/3 600 м
[Sc Ac trans]
+28.2 +13.4 40 +30 +30 жарко 1012.9 981.9 +29.4
15 20.02 штиль 0 4000 м 5/3 600 м
[Sc Ac trans]
+24.6 +15.3 56 +28 +28 душно 1014.7 983.3
18 20.02 штиль 0 4000 м 5/3 600 м
[Sc Ac trans]
+21.8 +14.3 62 +25 +25 комфорт 1015.8 984.1
21 20.02 штиль 0 4000 м 5/3 600 м
[Sc Ac trans]
+21.0 +14.5 66 +24 +24 комфорт 1015.4 983.6
00 21.02 штиль 0 4000 м 5/3 600 м
[Sc Ac trans]
+20.4 +15.0 71 +23 +23 комфорт 1015.7 983.8
03 21.02 штиль 0 2000 м мгла ясно +20.6 +13.7 65 +23 +27 комфорт 1016.2 984.3 +16.2 +29.4
06 21.02 СВ 1 2000 м мгла 5/0
[Ci fib]
+28.0 +16.3 49 +31 +46 душно 1016.3 985.2
09 21.02 С 2 4000 м 3/0
[Ci fib]
+31.4 +15.3 38 +34 +45 душно 1012.3 981.6
12 21.02 СВ 2 4000 м 3/0
[Ac trans]
+30.6 +15.0 39 +33 +33 душно 1011.4 980.7 +31.8
15 21.02 СВ 1 4000 м 3/0
[Ci fib]
+23.4 +15.4 61 +28 +28 душно 1014.5 983.0
18 21.02 штиль 0 4000 м 3/0
[Ci fib]
+20.8 +14.3 66 +23 +23 комфорт 1015.5 983.7
21 21.02 штиль 0 4000 м ясно +20.0 +14.5 71 +22 +22 комфорт 1015.1 983.2
00 22.02 штиль 0 4000 м ясно +19.2 +14.4 74 +20 +20 1015.4 983.4
03 22.02 С 1 4000 м мгла ясно +21.2 +14.8 67 +24 +28 комфорт 1017.0 985.2 +19.0 +31.8
06 22.02 С 2 4000 м ясно +25.2 +14.9 53 +28 +42 жарко 1017.4 986.0
09 22.02 С 2 4000 м ясно +27.6 +11.6 37 +29 +39 жарко 1014.2 983.1
12 22.02 С 2 4000 м 8/4 600 м
[Sc Ac trans Ci fib]
+26.0 +9.8 36 +27 +27 жарко 1013.8 982.6 +28.4
15 22.02 штиль 0 4000 м 4/3 600 м
[Sc Ac trans]
+23.0 +11.2 47 +25 +25 комфорт 1015.7 984.1
18 22.02 С 1 4000 м 4/3 600 м
[Sc Ac trans]
+20.6 +8.4 45 +23 +23 комфорт 1016.8 984.9
21 22.02 штиль 0 4000 м 4/3 600 м
[Sc Ac trans]
+20.4 +9.6 50 +22 +22 комфорт 1016.2 984.3
00 23.02 штиль 0 4000 м 4/3 600 м
[Sc Ac trans]
+20.0 +10.9 56 +21 +21 комфорт 1016.7 984.7
03 23.02 С 1 4000 м мгла 6/0
[Ac trans Ci fib]
+17.0 +8.9 59 +19 +22 1018.7 986.3 +14.5 +28.4
06 23.02 ЮВ 1 4000 м 9/4 600 м
[Sc Ac trans Ci fib]
+20.2 +8.8 48 +23 +28 комфорт 1017.5 985.5
09 23.02 ЮВ 1 4000 м 5/0
[Ac trans Ci fib]
+24.0 +9.8 41 +25 +36 комфорт 1014.8 983.3
12 23.02 С 1 4000 м 8/3 600 м
[Sc Ac trans Ci fib]
+23.4 +7.9 37 +24 +25 комфорт 1012.7 981.2 +24.7
15 23.02 ЮВ 1 4000 м 8/3 600 м
[Sc Ac trans Ci fib]
+20.4 +9.6 50 +23 +23 комфорт 1013.8 982.0
18 23.02 штиль 0 4000 м 5/3 600 м
[Sc Ac trans Ci fib]
+17.6 +12.2 71 +18 +18 1013.6 981.5
21 23.02 штиль 0 4000 м 8/4 600 м
[Sc Ac trans Ci fib]
+17.4 +12.0 71 +17 +17 1011.5 979.4
00 24.02 В 1 4000 м 6/3 600 м
[Sc Ac trans]
+16.0 +12.8 81 +17 +17 1011.0 978.8
03 24.02 штиль 0 2000 м мгла 8/5 600 м
[Sc Ac trans]
+17.4 +12.4 72 +17 +19 1012.6 980.5 +14.9 +24.7

 

Местоположение метеостанции Кота (Раджастхан, Индия): широта 25.15 долгота 75.85 высота над уровнем моря 274 м.

В архиве по умолчанию представлена погода в Коте за последнюю неделю. Архивные данные за месяц целиком и за предыдущие месяцы, начиная с января 2011 года, Вы можете получить, выбрав интересующий диапазон дат из раскрывающегося списка и нажав кнопку "Ввод!".


*Определитесь, кто Вы:
робот инопланетянин человек

Внимание! Время в таблицах - всемирное. Для получения местного времени необходимо прибавить поправку, которая равна 5.5 ч.

Смотрите также архив погоды в соседних городах и на ближайших метеорологических станциях:

Погода в Шеопуре (Мадхья-Прадеш, Индия) (101 км)
Погода в Бхилваре (Раджастхан, Индия) (125 км)
Погода в Читторгархе (Раджастхан, Индия) (127 км)
Погода в Раджгархе (Мадхья-Прадеш, Индия) (155 км)
Погода в Гуне (Мадхья-Прадеш, Индия) (158 км)
Погода в Шивпури (Мадхья-Прадеш, Индия) (182 км)
Погода в Джайпуре (Раджастхан, Индия) (186 км)
Погода в Аджмере (Раджастхан, Индия) (190 км)
Погода в Шаджапуре (Мадхья-Прадеш, Индия) (197 км)
Погода в Аэропорту Махараны Пратапа (Раджастхан, Индия) (207 км)

Пояснения к столбцам:

Ветер - указаны скорость ветра в м/с - средняя за 10 мин, порывы в срок и между сроками (в фигурных скобках) и направление, откуда дует ветер: С - северный, СВ - северо-восточный, В - восточный, ЮВ - юго-восточный, Ю - южный, ЮЗ - юго-западный, З - западный, СЗ - северо-западный.
Видимость - горизонтальная дальность видимости в метрах или километрах. При видимости от 1 до 10 км при отсутствии осадков обычно наблюдается дымка, при ухудшении видимости до 1 км и менее - туман. В сухую погоду видимость может ухудшаться дымом, пылью или мглою.
Явления - указаны атмосферные явления, наблюдавшиеся в срок или в последний час перед сроком; фигурными скобками обозначены явления, наблюдавшиеся между сроками (за 1-3 часа до срока); квадратными скобками обозначены град или гололедные отложения с указанием их диаметра в мм.
Облачность - указаны через наклонную черту общая и нижняя облачность в баллах и высота нижней границы облаков в метрах; квадратными скобками обозначены формы облаков: Ci - перистые, Cs - перисто-слоистые, Cc - перисто-кучевые, Ac - высококучевые, As - высокослоистые, Sc - слоисто-кучевые, Ns - слоисто-дождевые, Cu - кучевые, Cb - кучево-дождевые. Подробнее классификацию облаков см. в Атласе облаков (PDF).
T - Температура воздуха - температура, измеренная на высоте 2 м над землей.
Td - Температура точки росы - температура, при понижении до которой содержащийся в воздухе водяной пар достигнет насыщения.
f - Относительная влажность воздуха - влажноcть воздуха, измеренная на высоте 2 м над землей.
Te - Эффективная температура - температура, которую ощущает одетый по сезону человек в тени. Характеристика душности погоды. При расчете учитывается влияние влажности воздуха и скорости ветра на теплоощущения человека.
Tes - Эффективная температура на солнце - температура, которую ощущает человек, с поправкой на солнечный нагрев. Характеристика знойности погоды. Зависит от высоты солнца над горизонтом, облачности и скорости ветра. Ночью, в пасмурную погоду, а также при ветре 12 м/с и более поправка равна нулю.
P - Атмосферное давление - приведенное к уровню моря атмосферное давление.
Po - Атмосферное давление - измеренное на уровне метеостанции атмосферное давление.
Tmin - Минимальная температура - минимум температуры воздуха на высоте 2 м над землей.
Tmax - Максимальная температура - максимум температуры воздуха на высоте 2 м над землей.
R - Количество осадков - Количество выпавших осадков за период времени, мм. При наведении курсора мыши на число - период времени, за который выпало указанное количество осадков.
R24 - Количество осадков - Количество выпавших осадков за 24 часа, мм.
S - Снежный покров - Высота снежного покрова, см. При наведении курсора мыши на число - состояние снежного покрова и степень покрытия местности в баллах.